Météo par heure à Kyslivka

Ce jour, 25 Juillet, Dimanche

Heure Température Précipitation Vent Pression Humidité
00:00 +19°C° 0 mm 2 m/s 746 mmHg 70%
01:00 +19°C° 0 mm 2 m/s 746 mmHg 71%
02:00 +19°C° 0 mm 2 m/s 746 mmHg 71%
03:00 +20°C° 0 mm 1 m/s 747 mmHg 72%
04:00 +18°C° 0 mm 2 m/s 747 mmHg 72%
05:00 +18°C° 0 mm 2 m/s 747 mmHg 73%
06:00 +18°C° 0 mm 2 m/s 747 mmHg 74%
07:00 +20°C° 0 mm 2 m/s 748 mmHg 67%
08:00 +21°C° 0 mm 3 m/s 748 mmHg 60%
09:00 +24°C° 0 mm 3 m/s 748 mmHg 54%
10:00 +25°C° 0 mm 3 m/s 748 mmHg 49%
11:00 +27°C° 0 mm 3 m/s 749 mmHg 45%
12:00 +28°C° 0 mm 3 m/s 749 mmHg 40%
13:00 +28°C° 0 mm 3 m/s 749 mmHg 38%
14:00 +29°C° 0 mm 3 m/s 749 mmHg 36%
15:00 +29°C° 0 mm 3 m/s 749 mmHg 34%
16:00 +29°C° 0 mm 4 m/s 749 mmHg 36%
17:00 +28°C° 0 mm 4 m/s 749 mmHg 37%
18:00 +28°C° 0 mm 4 m/s 749 mmHg 38%
19:00 +26°C° 0 mm 4 m/s 749 mmHg 43%
20:00 +24°C° 0 mm 3 m/s 749 mmHg 48%
21:00 +21°C° 0 mm 3 m/s 749 mmHg 52%
22:00 +20°C° 0 mm 3 m/s 749 mmHg 54%
23:00 +19°C° 0 mm 3 m/s 750 mmHg 55%

Demain, 26 Juillet, Lundi

Heure Température Précipitation Vent Pression Humidité
00:00 +19°C° 0 mm 3 m/s 750 mmHg 57%
01:00 +18°C° 0 mm 3 m/s 750 mmHg 59%
02:00 +18°C° 0 mm 3 m/s 750 mmHg 60%
03:00 +17°C° 0 mm 3 m/s 750 mmHg 62%
04:00 +17°C° 0 mm 3 m/s 750 mmHg 64%
05:00 +17°C° 0 mm 3 m/s 750 mmHg 67%
06:00 +17°C° 0 mm 3 m/s 750 mmHg 69%
07:00 +20°C° 0 mm 3 m/s 750 mmHg 62%
08:00 +22°C° 0 mm 4 m/s 751 mmHg 56%
09:00 +25°C° 0 mm 4 m/s 751 mmHg 49%
10:00 +27°C° 0 mm 4 m/s 751 mmHg 45%
11:00 +28°C° 0 mm 4 m/s 751 mmHg 41%
12:00 +30°C° 0 mm 4 m/s 751 mmHg 37%
13:00 +30°C° 0 mm 4 m/s 750 mmHg 36%
14:00 +30°C° 0 mm 3 m/s 750 mmHg 34%
15:00 +31°C° 0 mm 3 m/s 750 mmHg 32%
16:00 +30°C° 0 mm 3 m/s 750 mmHg 34%
17:00 +30°C° 0 mm 4 m/s 750 mmHg 35%
18:00 +30°C° 0 mm 4 m/s 750 mmHg 36%
19:00 +27°C° 0 mm 4 m/s 750 mmHg 41%
20:00 +25°C° 0 mm 4 m/s 750 mmHg 46%
21:00 +22°C° 0 mm 4 m/s 750 mmHg 51%
22:00 +21°C° 0 mm 3 m/s 750 mmHg 51%
23:00 +21°C° 0 mm 3 m/s 750 mmHg 51%

Après-demain, 27 Juillet, Mardi

Heure Température Précipitation Vent Pression Humidité
00:00 +20°C° 0 mm 3 m/s 750 mmHg 51%
01:00 +19°C° 0 mm 3 m/s 750 mmHg 53%
02:00 +19°C° 0 mm 3 m/s 750 mmHg 55%
03:00 +18°C° 0 mm 3 m/s 750 mmHg 57%
04:00 +18°C° 0 mm 3 m/s 750 mmHg 58%
05:00 +18°C° 0 mm 3 m/s 750 mmHg 60%
06:00 +18°C° 0 mm 3 m/s 750 mmHg 61%
07:00 +21°C° 0 mm 3 m/s 750 mmHg 54%
08:00 +23°C° 0 mm 4 m/s 750 mmHg 48%
09:00 +27°C° 0 mm 4 m/s 750 mmHg 42%
10:00 +28°C° 0 mm 4 m/s 750 mmHg 38%
11:00 +29°C° 0 mm 4 m/s 750 mmHg 34%
12:00 +32°C° 0 mm 4 m/s 750 mmHg 30%
13:00 +32°C° 0 mm 4 m/s 750 mmHg 29%
14:00 +31°C° 0 mm 3 m/s 750 mmHg 28%
15:00 +33°C° 0 mm 3 m/s 749 mmHg 27%
16:00 +31°C° 0 mm 3 m/s 749 mmHg 29%
17:00 +31°C° 0 mm 3 m/s 749 mmHg 31%
18:00 +31°C° 0 mm 3 m/s 749 mmHg 33%
19:00 +28°C° 0 mm 3 m/s 749 mmHg 38%
20:00 +26°C° 0 mm 3 m/s 749 mmHg 43%
21:00 +24°C° 0 mm 3 m/s 749 mmHg 48%
22:00 +22°C° 0 mm 3 m/s 749 mmHg 49%
23:00 +22°C° 0 mm 3 m/s 749 mmHg 51%

28 Juillet, Mercredi

Heure Température Précipitation Vent Pression Humidité
00:00 +21°C° 0 mm 2 m/s 749 mmHg 52%
01:00 +21°C° 0 mm 2 m/s 749 mmHg 52%
02:00 +20°C° 0 mm 2 m/s 749 mmHg 52%
03:00 +20°C° 0 mm 2 m/s 749 mmHg 52%
04:00 +21°C° 0 mm 1 m/s 749 mmHg 52%
05:00 +21°C° 0 mm 1 m/s 748 mmHg 53%
06:00 +19°C° 0 mm 0 m/s 748 mmHg 53%
07:00 +22°C° 0 mm 0 m/s 748 mmHg 48%
08:00 +26°C° 0 mm 1 m/s 748 mmHg 43%
09:00 +28°C° 0 mm 1 m/s 748 mmHg 37%
10:00 +30°C° 0 mm 1 m/s 748 mmHg 34%
11:00 +31°C° 0 mm 1 m/s 748 mmHg 31%
12:00 +32°C° 0 mm 1 m/s 748 mmHg 28%
13:00 +33°C° 0 mm 1 m/s 747 mmHg 27%
14:00 +34°C° 0 mm 2 m/s 747 mmHg 26%
15:00 +34°C° 0 mm 2 m/s 746 mmHg 25%
16:00 +32°C° 0 mm 2 m/s 746 mmHg 27%
17:00 +31°C° 0 mm 2 m/s 746 mmHg 30%
18:00 +30°C° 0 mm 2 m/s 746 mmHg 33%
19:00 +28°C° 0 mm 2 m/s 745 mmHg 42%
20:00 +27°C° 0 mm 3 m/s 745 mmHg 52%
21:00 +25°C° 0 mm 3 m/s 745 mmHg 61%
22:00 +24°C° 0.2 mm 3 m/s 745 mmHg 64%
23:00 +22°C° 0.2 mm 3 m/s 745 mmHg 66%

29 Juillet, Jeudi

Heure Température Précipitation Vent Pression Humidité
00:00 +22°C° 0.2 mm 3 m/s 745 mmHg 69%
01:00 +21°C° 0.7 mm 3 m/s 744 mmHg 73%
02:00 +21°C° 0.7 mm 3 m/s 744 mmHg 78%
03:00 +20°C° 0.7 mm 4 m/s 744 mmHg 83%
04:00 +20°C° 0.6 mm 4 m/s 744 mmHg 82%
05:00 +20°C° 0.6 mm 4 m/s 743 mmHg 82%
06:00 +20°C° 0.6 mm 4 m/s 743 mmHg 82%
07:00 +22°C° 0 mm 4 m/s 743 mmHg 73%
08:00 +25°C° 0 mm 5 m/s 743 mmHg 65%
09:00 +27°C° 0 mm 5 m/s 743 mmHg 56%
10:00 +28°C° 0 mm 6 m/s 743 mmHg 51%
11:00 +30°C° 0 mm 6 m/s 743 mmHg 47%
12:00 +32°C° 0 mm 6 m/s 743 mmHg 43%
13:00 +33°C° 0 mm 6 m/s 742 mmHg 41%
14:00 +34°C° 0 mm 6 m/s 742 mmHg 39%
15:00 +35°C° 0 mm 5 m/s 742 mmHg 38%
16:00 +34°C° 0 mm 5 m/s 741 mmHg 40%
17:00 +33°C° 0 mm 4 m/s 741 mmHg 43%
18:00 +31°C° 0 mm 3 m/s 741 mmHg 45%
19:00 +29°C° 0.3 mm 3 m/s 741 mmHg 54%
20:00 +27°C° 0.3 mm 3 m/s 741 mmHg 62%
21:00 +25°C° 0.3 mm 3 m/s 741 mmHg 71%
22:00 +24°C° 0.6 mm 3 m/s 741 mmHg 77%
23:00 +22°C° 0.6 mm 3 m/s 741 mmHg 82%

30 Juillet, Vendredi

Heure Température Précipitation Vent Pression Humidité
00:00 +21°C° 0.6 mm 3 m/s 741 mmHg 88%
01:00 +21°C° 0.1 mm 3 m/s 741 mmHg 89%
02:00 +20°C° 0.1 mm 4 m/s 741 mmHg 90%
03:00 +20°C° 0.1 mm 4 m/s 740 mmHg 91%
04:00 +20°C° 0 mm 4 m/s 741 mmHg 91%
05:00 +20°C° 0 mm 3 m/s 741 mmHg 91%
06:00 +20°C° 0 mm 3 m/s 741 mmHg 91%
07:00 +22°C° 0 mm 3 m/s 741 mmHg 83%
08:00 +24°C° 0 mm 2 m/s 741 mmHg 76%
09:00 +26°C° 0 mm 2 m/s 741 mmHg 68%
10:00 +27°C° 0 mm 2 m/s 741 mmHg 63%
11:00 +28°C° 0 mm 3 m/s 741 mmHg 58%
12:00 +30°C° 0 mm 3 m/s 741 mmHg 52%
13:00 +30°C° 0 mm 3 m/s 741 mmHg 51%
14:00 +30°C° 0 mm 4 m/s 741 mmHg 49%
15:00 +32°C° 0 mm 5 m/s 741 mmHg 47%
16:00 +30°C° 0 mm 5 m/s 742 mmHg 50%
17:00 +29°C° 0 mm 5 m/s 742 mmHg 52%
18:00 +29°C° 0 mm 4 m/s 742 mmHg 54%
19:00 +28°C° 0 mm 4 m/s 742 mmHg 57%
20:00 +26°C° 0 mm 3 m/s 743 mmHg 60%
21:00 +25°C° 0 mm 3 m/s 743 mmHg 63%
22:00 +25°C° 0 mm 3 m/s 743 mmHg 62%
23:00 +25°C° 0 mm 2 m/s 743 mmHg 61%
Voir plus

Nous avons besoin de votre consentement

Meteoprog et ses fournisseurs de services peuvent stocker et accéder à des données personnelles telles que des cookies, des identifiants d'appareils ou d'autres technologies similaires sur votre appareil et traiter ces données pour personnaliser le contenu et les publicités, ainsi que pour fournir des fonctionnalités de médias sociaux et analyser le trafic.

  • Stocker et/ou accéder à des informations sur votre appareil

    Des cookies, des identifiants d'appareils ou d'autres informations peuvent être stockés ou accessibles sur votre appareil aux fins indiquées ci-dessus.

  • Annonces et contenus personnalisés, mesure des annonces et des contenus, connaissance de l'audience et développement de produits

    Les annonces et le contenu peuvent être personnalisés en fonction d'un profil. D'autres données peuvent être ajoutées pour mieux personnaliser les annonces et le contenu. Les performances des publicités et du contenu peuvent être mesurées. Il est possible d'obtenir des informations sur le public qui a vu les publicités et le contenu. Ces données peuvent être utilisées pour développer ou améliorer l'expérience de l'utilisateur, les systèmes et les logiciels.

En cliquant sur "J'accepte", vous autorisez l'utilisation de cookies, des identifiants d'appareils, des balises web ou d'autres technologies similaires. Vos paramètres peuvent être modifiés dans le navigateur de votre appareil.

Dans certains cas, des intérêts légitimes peuvent être invoqués plutôt qu'un consentement. Vous pouvez en savoir plus à ce sujet dans notre Politique de confidentialité et de cookies.